Location: Auttagershofen
(48.1940°N, 10.0237°E)
Time: 09:18:30
(UTC+00:00)

Cosmos 44 - Pass Details

Date: 18 January 2026
Orbit: 570 x 780 km, 65.1° (Epoch: 19 February)

Event Time Altitude Azimuth Distance (km) Brightness Sun altitude
Exits shadow 05:47:07 17° 293° (WNW) 1,876 4.9 -12.4°
Maximum altitude 05:50:10 29° 246° (WSW) 1,405 4.5 -12.0°
Drops below altitude 10° 05:54:44 10° 188° (S) 2,323 6.1 -11.2°
Sets 05:57:23 0° 177° (S) 3,236 7.0 -10.8°
